Date,TemperatureHighF,TemperatureAvgF,TemperatureLowF,DewpointHighF,DewpointAvgF,DewpointLowF,HumidityHigh,HumidityAvg,HumidityLow,PressureMaxIn,PressureMinIn,WindSpeedMaxMPH,WindSpeedAvgMPH,GustSpeedMaxMPH,PrecipitationSumIn
2013-1-1,42.1,38.8,29.3,31.5,27.4,15.9,76,63,50,29.92,29.72,11,2,18,0.00
2013-1-2,35.6,29.1,24.6,16.9,14.5,11.5,62,54,45,30.04,29.87,11,2,21,0.00
2013-1-3,37.2,30.0,24.8,21.1,17.3,16.3,72,59,45,30.10,29.97,5,0,11,0.00
2013-1-4,39.0,34.0,28.4,23.5,22.0,19.9,71,61,50,30.01,29.87,11,3,17,0.00
2013-1-5,34.3,31.7,30.9,21.5,20.5,19.5,63,63,59,30.14,29.93,7,2,12,0.00
2013-1-6,50.4,39.3,31.6,36.5,28.8,20.5,98,67,50,30.14,29.88,6,1,11,0.04
2013-1-7,52.0,39.8,32.2,32.9,27.7,23.8,78,63,38,30.31,29.96,9,0,14,0.00
2013-1-8,53.4,39.2,27.7,34.3,30.2,23.4,90,71,47,30.35,30.25,8,0,15,0.00
2013-1-9,34.9,33.9,32.0,32.5,31.4,29.7,92,91,90,30.30,30.27,0,0,0,0.00
2013-1-11,48.6,44.6,40.6,46.5,39.4,29.6,99,83,61,30.44,29.96,0,0,0,0.45
2013-1-12,48.7,46.1,44.4,48.2,45.7,44.2,99,98,94,30.07,29.94,3,0,7,0.01
2013-1-13,51.6,46.4,42.6,51.3,46.0,42.4,99,98,94,30.05,29.90,3,0,7,0.00
2013-1-14,59.7,51.4,41.4,56.6,46.1,32.1,99,84,50,30.18,29.84,6,1,10,0.06
2013-1-15,41.0,39.3,37.0,39.5,32.6,28.5,96,77,64,30.24,30.09,3,0,9,0.20
2013-1-16,41.7,37.4,35.4,41.5,36.8,33.4,99,98,87,30.10,29.67,8,1,14,0.67
2013-1-17,46.4,40.6,38.5,37.1,32.5,29.7,94,74,55,30.00,29.82,5,1,11,0.01
2013-1-18,38.8,31.2,30.4,30.2,18.7,17.4,71,59,58,30.21,29.89,12,4,21,0.00
2013-1-19,30.6,30.6,30.6,17.6,17.6,17.6,58,58,58,30.21,30.21,4,4,21,0.00
2013-1-20,30.6,30.6,30.6,17.6,17.6,17.6,58,58,58,30.21,30.21,4,4,21,0.00
2013-1-21,33.8,30.4,27.0,27.7,19.8,9.6,98,66,39,30.21,29.73,6,2,21,0.06
2013-1-22,27.0,20.2,14.0,18.3,1.5,-5.2,71,44,31,30.12,29.73,15,6,25,0.02
2013-1-23,14.0,12.4,11.8,-2.6,-3.9,-4.7,49,47,45,30.14,30.11,9,3,16,0.00
2013-1-24,41.7,28.5,17.1,31.4,13.9,-0.9,76,54,39,30.01,29.40,9,3,20,1.54
2013-1-25,26.8,18.2,12.7,17.5,6.3,-2.2,95,61,39,30.02,29.65,9,2,15,0.00
2013-1-26,30.6,21.3,12.6,15.5,10.9,7.0,95,66,41,29.97,29.63,10,2,17,0.00
2013-1-27,37.8,26.1,16.5,15.2,12.1,8.4,71,56,35,30.12,29.97,10,1,18,0.00
2013-1-28,36.3,31.3,23.9,36.1,26.9,14.2,99,84,65,30.09,29.58,4,0,9,0.11
2013-1-29,56.8,43.5,35.6,47.6,41.3,35.4,99,93,65,29.72,29.58,3,0,8,0.01
2013-1-30,61.3,50.5,42.8,59.2,49.2,42.5,99,96,78,29.65,28.96,8,1,21,0.04
2013-1-31,60.8,46.2,30.0,60.4,32.4,11.3,99,62,32,29.40,28.65,21,8,43,1.61
2013-2-1,33.8,28.8,23.7,16.8,11.4,5.2,60,48,31,29.83,29.39,15,4,24,0.00
2013-2-2,34.2,25.6,18.1,21.5,8.9,2.6,89,51,28,29.90,29.63,9,3,15,0.00
2013-2-3,32.9,26.0,22.6,24.9,22.3,18.6,97,86,65,29.64,29.37,7,0,11,0.02
2013-2-4,32.4,27.3,22.8,24.2,12.5,8.9,90,54,40,29.58,29.40,12,4,24,0.33
2013-2-5,34.2,31.7,26.4,33.4,30.0,23.2,97,93,87,29.55,29.46,4,0,8,0.01
2013-2-6,42.3,35.0,29.7,32.3,24.7,6.7,99,69,37,29.95,29.48,11,2,21,0.01
2013-2-7,39.7,31.7,25.0,35.6,18.0,6.3,85,57,36,30.09,29.88,6,0,11,0.00
2013-2-8,41.7,37.4,28.6,41.1,36.3,28.3,99,96,85,29.88,29.17,14,5,26,1.36
2013-2-9,36.5,28.9,22.3,29.6,18.8,6.7,99,70,33,29.91,29.30,15,5,27,0.01
2013-2-10,41.2,24.4,14.0,26.0,14.0,6.7,82,66,28,30.08,29.91,8,1,12,0.01
2013-2-11,53.4,42.8,31.5,53.2,41.7,26.0,99,96,80,29.93,29.22,7,1,18,0.31
2013-2-12,48.4,42.1,33.3,43.3,27.4,23.3,99,58,41,29.55,29.31,14,4,23,0.04
2013-2-13,45.7,36.1,26.8,33.2,27.7,22.6,99,72,48,29.54,29.25,4,0,8,0.01
2013-2-14,47.7,38.6,32.0,37.8,34.0,28.4,99,85,52,29.60,29.26,6,0,11,0.12
2013-2-15,58.8,43.5,34.0,42.3,35.8,31.3,97,76,43,29.61,29.49,8,1,12,0.00
2013-2-16,45.7,37.6,32.2,35.4,28.6,15.7,93,71,50,29.52,29.29,8,1,17,0.00
2013-2-17,34.3,28.8,19.0,17.7,4.3,-3.2,55,36,22,29.59,29.23,15,7,30,0.18
2013-2-18,38.3,26.8,17.2,11.6,3.4,-1.9,48,37,22,29.85,29.58,14,5,27,0.00
2013-2-19,51.3,40.1,28.0,46.3,32.6,11.1,99,76,46,29.81,29.25,11,1,21,0.21
2013-2-20,39.4,31.5,25.7,28.2,12.3,5.4,65,45,33,29.58,29.31,17,7,27,0.04
2013-2-21,38.7,28.1,23.5,15.2,11.4,8.8,62,50,34,29.85,29.56,13,5,27,0.00
2013-2-22,40.1,35.4,25.5,36.3,27.3,15.7,88,73,59,29.98,29.84,6,0,11,0.00
2013-2-23,44.1,41.1,37.4,43.8,40.4,36.3,99,97,88,29.85,29.35,10,2,18,0.58
2013-2-24,51.4,40.6,34.0,43.2,32.8,21.2,99,76,46,29.56,29.30,14,4,27,0.02
2013-2-25,48.9,38.9,30.0,29.7,25.0,20.9,75,58,42,29.81,29.56,7,1,12,0.00
2013-2-26,46.0,38.1,28.0,39.8,32.7,24.6,99,81,67,29.86,29.40,17,2,30,0.28
2013-2-27,57.6,46.5,40.1,54.9,43.2,37.3,99,89,62,29.42,29.04,16,4,31,0.71
2013-2-28,52.7,44.5,37.9,40.8,34.7,27.0,89,69,49,29.20,29.11,8,2,15,0.01
2013-3-1,48.2,40.5,33.8,32.8,29.0,24.7,89,65,44,29.35,29.17,11,3,17,0.00
2013-3-2,43.3,37.3,30.7,25.5,23.5,21.8,79,58,43,29.35,29.26,9,4,16,0.00
2013-3-3,41.4,33.9,29.5,24.7,18.8,16.4,78,54,39,29.34,29.24,11,4,17,0.00
2013-3-4,45.0,35.3,27.3,20.4,17.5,13.8,64,49,35,29.49,29.33,13,6,24,0.00
2013-3-5,51.8,39.1,30.2,35.3,24.6,19.1,90,58,34,29.59,29.48,10,1,17,0.00
2013-3-6,41.4,39.9,36.1,37.8,34.6,30.6,92,81,73,29.54,29.35,17,7,36,0.65
2013-3-7,40.1,36.2,33.3,35.7,32.9,28.4,99,88,71,29.65,29.44,11,3,21,0.30
2013-3-8,41.9,35.5,32.2,35.2,33.1,30.9,99,91,68,29.74,29.56,8,1,21,0.21
2013-3-9,60.1,44.3,33.8,36.1,25.2,11.7,90,52,16,29.91,29.73,8,2,18,0.07
2013-3-10,43.7,37.6,29.7,36.9,33.6,28.9,99,86,71,29.98,29.89,5,0,10,0.00
2013-3-11,53.1,43.2,33.1,48.1,41.2,32.8,99,93,75,29.91,29.67,4,0,11,0.00
2013-3-12,55.6,50.1,46.6,55.3,48.6,39.4,99,95,75,29.68,29.25,8,2,18,0.46
2013-3-13,54.0,44.5,36.9,39.4,30.4,19.0,94,62,27,29.47,29.37,11,3,19,0.00
2013-3-14,43.2,36.6,30.6,25.7,11.4,1.1,63,37,21,29.54,29.43,17,6,27,0.08
2013-3-15,50.0,40.1,29.3,27.4,16.3,4.3,50,38,27,29.57,29.29,13,4,24,0.00
2013-3-16,46.6,37.2,33.1,33.7,28.0,20.5,98,72,46,29.48,29.34,6,0,9,0.06
2013-3-17,43.0,35.3,30.2,33.9,20.5,13.2,99,58,34,29.88,29.49,10,1,17,0.06
2013-3-18,39.0,35.1,30.9,38.8,24.8,9.9,99,68,39,29.99,29.55,10,3,20,0.39
2013-3-19,51.4,41.7,38.3,40.4,36.0,13.0,99,83,32,29.55,29.26,13,3,28,0.44
2013-3-20,50.0,40.2,32.0,23.1,15.8,10.0,56,38,21,29.48,29.36,14,4,22,0.00
2013-3-21,38.8,34.0,30.2,28.8,22.5,11.9,90,64,37,29.39,29.21,8,1,15,0.02
2013-3-22,44.1,35.0,27.1,20.4,16.3,12.4,65,47,30,29.47,29.32,14,4,24,0.01
2013-3-23,49.3,39.5,30.2,20.2,17.4,13.0,63,43,25,29.51,29.39,14,4,22,0.00
2013-3-24,47.7,39.3,30.7,27.6,19.6,14.3,65,46,31,29.52,29.28,13,1,24,0.00
2013-3-25,39.6,36.3,33.4,35.4,33.5,27.9,99,90,64,29.27,29.01,13,3,24,0.52
2013-3-26,54.3,43.0,33.4,36.8,30.8,22.5,99,67,33,29.44,29.15,8,1,17,0.04
2013-3-27,55.4,43.4,34.9,30.2,27.3,17.6,71,55,24,29.56,29.44,8,2,16,0.00
2013-3-28,52.9,44.8,35.6,30.9,29.0,24.7,76,55,35,29.69,29.53,8,2,16,0.00
2013-3-29,57.6,46.9,38.3,36.8,27.5,20.1,66,48,24,29.73,29.63,9,1,16,0.00
2013-3-30,41.4,38.2,34.7,37.6,32.6,28.8,95,80,72,30.20,29.98,16,6,28,0.57
2013-3-31,47.8,38.9,32.4,47.6,38.1,32.1,99,97,76,30.27,29.87,8,2,15,0.21
2013-4-1,66.7,51.8,39.7,49.1,38.4,8.9,99,66,25,30.11,29.81,14,4,24,0.01
2013-4-2,47.1,39.4,31.1,13.1,8.6,1.9,46,29,16,30.30,30.11,15,4,24,0.00
2013-4-3,48.9,40.2,32.4,13.2,8.4,1.2,43,28,16,30.51,30.29,13,4,25,0.00
2013-4-4,46.9,38.0,30.0,32.7,18.3,7.2,99,47,28,30.61,29.75,6,1,14,2.63
2013-4-5,66.9,49.7,38.5,40.2,27.3,4.2,95,51,11,29.86,29.45,10,1,19,0.07
2013-4-6,48.9,42.6,36.1,29.7,19.4,5.2,68,41,17,30.09,29.75,9,2,17,0.00
2013-4-7,55.4,47.5,35.1,45.4,37.1,26.7,80,67,56,30.09,29.78,8,1,21,0.00
2013-4-8,68.0,57.0,48.7,47.9,44.7,40.7,93,66,41,29.85,29.73,5,1,12,0.00
2013-4-9,86.9,69.3,49.5,54.2,44.4,22.9,93,51,10,29.75,29.66,13,3,26,0.00
2013-4-10,71.1,70.2,69.4,52.3,51.8,51.0,54,52,51,29.66,29.59,6,2,11,0.00
2013-4-11,60.1,53.9,46.0,59.8,52.3,44.0,99,95,80,29.78,29.50,6,1,14,0.04
2013-4-12,46.4,43.9,42.6,44.9,43.6,42.4,99,99,88,29.77,29.44,11,4,22,1.07
2013-4-13,56.1,47.5,40.6,47.8,43.4,40.4,99,87,64,29.75,29.46,6,1,14,0.01
2013-4-14,64.4,52.4,42.1,48.4,36.1,21.0,99,62,21,29.98,29.73,14,2,24,0.00
2013-4-15,54.0,48.7,44.8,45.3,38.6,32.7,94,69,52,30.15,29.97,7,0,12,0.00
2013-4-16,62.8,55.0,46.4,55.7,50.5,44.8,97,85,69,30.15,29.89,9,1,19,0.00
2013-4-17,67.6,59.7,50.4,58.4,48.6,37.0,99,69,42,30.05,29.86,6,1,13,0.01
2013-4-18,57.0,52.0,46.8,53.7,47.5,36.9,99,85,60,30.11,29.85,4,0,11,0.00
2013-4-19,72.0,60.4,52.5,66.5,58.2,52.3,99,93,72,29.86,29.42,9,2,19,0.00
2013-4-20,66.7,54.4,49.3,65.3,35.3,21.4,99,55,24,30.04,29.42,13,5,23,0.39
2013-4-21,52.7,45.5,38.1,32.0,24.4,17.3,71,44,30,30.39,30.05,7,1,14,0.00
2013-4-22,50.7,46.2,41.2,40.6,35.4,29.7,83,66,52,30.42,30.24,11,4,27,0.00
2013-4-23,51.6,46.0,41.9,44.1,40.6,35.1,99,82,72,30.24,29.87,11,2,27,0.01
2013-4-24,61.3,51.8,40.5,52.2,46.3,38.9,99,82,57,29.87,29.59,7,1,14,0.00
2013-4-25,66.2,55.6,48.0,54.8,34.8,17.4,99,50,17,30.04,29.64,14,2,24,0.02
2013-4-26,68.7,54.9,43.7,41.1,34.4,25.3,76,49,20,30.16,30.03,8,0,13,0.00
2013-4-27,66.6,56.0,44.8,36.2,31.6,23.6,65,41,21,30.19,30.07,5,0,13,0.00
2013-4-28,65.3,55.1,43.5,48.8,38.7,28.3,88,56,29,30.09,29.98,7,1,14,0.00
2013-4-29,55.6,53.3,51.6,52.9,50.3,47.1,98,89,76,30.00,29.93,3,0,8,0.27
2013-4-30,62.2,54.7,47.1,52.3,47.0,41.0,98,77,52,30.10,29.95,8,1,13,0.00
2013-5-1,59.2,49.4,42.8,49.9,44.5,40.2,96,84,59,30.25,30.09,6,0,10,0.00
2013-5-2,66.0,55.0,43.7,53.0,44.8,38.7,99,72,38,30.24,30.10,4,0,10,0.00
2013-5-3,59.4,53.7,48.2,49.8,43.9,38.7,94,71,50,30.24,30.12,8,2,21,0.00
2013-5-4,59.7,52.0,45.1,52.1,44.9,41.0,98,78,57,30.14,30.03,6,1,14,0.00
2013-5-5,58.1,51.2,47.1,45.9,42.0,37.3,91,71,57,30.06,30.00,7,1,15,0.00
2013-5-6,60.4,52.1,48.4,50.8,48.2,45.8,99,87,67,30.03,29.93,7,1,11,0.00
2013-5-7,61.3,54.4,48.4,55.7,53.1,48.1,99,96,81,29.93,29.84,5,0,9,0.00
2013-5-8,66.2,59.4,55.9,61.8,57.7,53.8,99,94,75,29.85,29.72,5,1,16,0.81
2013-5-9,72.9,58.6,54.1,63.0,56.0,53.9,99,92,57,29.76,29.65,4,0,8,0.24
2013-5-10,79.0,65.6,57.4,62.0,58.8,55.4,99,80,48,29.75,29.63,4,1,12,0.00
2013-5-11,72.9,63.8,60.3,66.4,62.1,59.0,99,94,73,29.66,29.46,7,1,17,0.44
2013-5-12,72.5,62.4,52.3,64.1,42.5,19.0,99,57,16,29.71,29.41,12,3,24,0.02
2013-5-13,59.2,52.3,43.0,33.7,26.4,15.2,66,38,20,29.86,29.71,11,2,22,0.00
2013-5-14,65.8,52.3,40.1,44.3,30.9,7.4,77,50,10,29.90,29.80,10,1,15,0.00
2013-5-15,70.7,58.8,49.8,59.6,48.1,30.0,88,68,46,29.84,29.44,5,1,11,0.00
2013-5-16,78.3,68.5,59.5,61.6,53.7,38.6,97,63,27,29.59,29.45,4,0,12,0.00
2013-5-17,79.9,67.6,55.8,60.4,41.7,31.3,82,42,20,29.97,29.58,7,0,14,0.00
2013-5-18,64.2,58.1,54.0,56.8,53.3,47.6,97,84,70,30.09,29.96,2,0,7,0.01
2013-5-19,58.8,57.0,55.6,58.6,56.7,55.1,99,99,91,30.07,29.92,4,0,13,0.18
2013-5-20,79.3,64.7,58.1,69.9,62.8,57.8,99,94,73,29.93,29.73,2,0,8,0.02
2013-5-21,86.7,75.2,65.7,73.9,68.2,64.7,99,81,56,29.73,29.60,6,0,11,0.00
2013-5-22,79.7,70.1,62.2,69.5,66.6,61.7,99,89,65,29.69,29.58,5,0,11,0.00
2013-5-23,80.1,69.2,62.2,72.3,66.4,62.0,99,91,71,29.66,29.52,7,1,17,0.09
2013-5-24,70.0,57.6,45.3,68.6,56.4,44.4,99,96,85,29.71,29.44,9,2,22,0.20
2013-5-25,66.7,51.3,44.2,59.5,44.1,36.5,99,79,41,29.78,29.65,14,4,28,0.34
2013-5-26,72.7,63.8,52.5,43.2,33.3,23.5,59,34,17,30.08,29.80,14,3,28,0.07
2013-5-27,76.1,63.0,45.1,48.9,37.8,25.1,77,43,17,30.15,30.02,6,0,12,0.00
2013-5-28,73.8,60.2,52.7,59.8,53.6,43.1,99,81,39,30.11,30.00,4,0,9,0.39
2013-5-29,88.9,70.6,56.5,69.9,62.6,56.2,99,79,39,30.01,29.89,4,0,10,0.00
2013-5-30,94.8,80.8,72.5,71.0,66.8,60.6,87,64,37,30.01,29.94,6,1,11,0.00
2013-5-31,93.9,82.2,72.7,71.7,68.0,63.4,91,64,42,30.01,29.88,4,1,12,0.00
2013-6-1,88.2,78.5,68.4,69.5,66.8,63.0,89,69,48,29.91,29.79,6,1,12,0.00
2013-6-2,86.0,77.2,69.4,71.5,67.4,62.3,97,73,51,29.81,29.67,11,1,16,0.02
2013-6-3,78.1,70.0,65.1,74.0,69.2,64.9,99,97,84,29.74,29.66,6,0,14,0.33
2013-6-4,80.1,69.0,59.2,65.9,46.1,39.1,99,46,24,29.99,29.74,6,1,16,0.01
2013-6-5,72.5,64.9,55.9,59.6,51.8,42.2,99,64,39,30.09,29.98,4,0,9,0.00
2013-6-6,71.8,63.9,58.6,64.8,61.9,58.4,99,93,75,30.02,29.86,4,0,10,0.04
2013-6-7,67.5,63.2,61.2,67.0,62.9,60.9,99,99,99,29.88,29.42,6,0,13,2.92
2013-6-8,81.5,69.8,58.3,68.1,64.8,58.0,99,85,57,29.93,29.39,8,2,14,0.25
2013-6-9,81.7,72.1,62.2,68.0,61.9,54.0,99,73,41,30.06,29.93,4,0,8,0.00
2013-6-10,68.7,66.1,64.2,68.5,65.8,64.0,99,99,93,30.04,29.68,4,0,11,1.25
2013-6-11,84.7,75.8,66.2,73.5,67.4,62.6,99,77,52,29.69,29.50,11,3,18,0.02
2013-6-12,72.0,70.9,69.8,62.9,62.4,61.2,76,74,73,29.61,29.59,8,3,14,0.00
2013-6-13,73.2,66.3,59.5,68.5,63.8,58.2,99,92,76,29.72,29.28,7,1,17,0.63
2013-6-14,74.5,62.9,55.6,60.2,56.6,51.4,99,82,46,29.77,29.34,8,1,20,0.09
2013-6-15,85.6,72.4,59.5,62.4,56.3,48.7,94,61,29,29.90,29.75,8,1,14,0.00
2013-6-16,86.7,73.2,63.0,69.7,61.0,56.1,84,67,43,29.88,29.66,11,2,20,0.00
2013-6-17,90.9,75.7,67.8,71.3,68.3,63.5,99,81,42,29.80,29.70,9,1,23,0.43
2013-6-18,81.3,70.1,65.3,72.0,67.3,64.5,99,92,60,29.78,29.66,4,0,10,0.37
2013-6-19,80.1,70.1,61.9,65.9,57.0,47.6,99,67,35,30.05,29.73,5,0,12,0.01
2013-6-20,79.7,69.9,57.6,61.3,56.3,50.0,94,65,38,30.17,30.04,6,1,11,0.00
2013-6-21,79.7,70.7,59.7,60.0,56.8,52.2,90,64,41,30.20,30.14,5,0,11,0.00
2013-6-22,79.9,71.0,58.8,67.0,61.0,54.0,99,72,47,30.15,30.02,5,0,14,0.00
2013-6-23,87.1,75.4,65.7,73.2,64.4,54.0,86,69,54,30.09,29.99,6,1,14,0.00
2013-6-24,96.1,81.1,72.9,77.8,71.6,66.0,99,76,39,29.96,29.85,7,1,11,0.04
2013-6-25,94.3,82.4,70.2,72.9,69.3,65.1,97,67,43,29.88,29.70,8,2,13,0.00
2013-6-26,92.5,80.7,71.8,72.6,68.0,62.4,99,67,37,29.74,29.65,7,2,11,0.90
2013-6-27,87.3,76.3,72.0,79.5,73.7,71.7,99,92,70,29.69,29.46,8,1,14,0.14
2013-6-28,90.3,78.8,71.8,76.2,72.5,67.7,99,83,48,29.46,29.35,6,1,14,0.02
2013-6-29,85.8,75.2,68.7,74.3,70.9,67.8,99,87,56,29.58,29.36,6,1,13,0.02
2013-6-30,83.8,73.7,67.8,76.4,72.0,67.6,99,95,72,29.79,29.58,4,0,9,0.02
2013-7-1,84.0,73.2,69.3,77.4,72.1,69.0,99,97,76,29.93,29.77,4,0,11,0.79
2013-7-2,86.0,74.7,69.3,77.1,72.7,69.0,99,94,70,30.09,29.93,8,0,16,0.28
2013-7-3,86.7,76.5,69.1,79.6,73.7,68.8,99,92,70,30.14,30.05,4,0,9,0.15
2013-7-4,92.3,81.7,74.7,79.5,75.3,71.6,99,83,54,30.15,30.04,8,1,15,0.00
2013-7-5,94.8,82.9,73.9,77.8,73.7,69.7,99,76,46,30.11,29.98,8,1,15,0.00
2013-7-6,97.2,86.8,76.6,78.5,74.4,70.2,99,69,43,30.03,29.90,7,2,14,0.00
2013-7-7,97.2,86.7,77.2,76.0,74.0,71.1,93,67,47,29.96,29.80,7,2,12,0.00
2013-7-8,92.7,80.4,72.3,73.4,70.2,67.2,91,72,44,29.94,29.87,7,2,12,0.00
2013-7-9,93.0,80.8,71.8,75.8,71.3,67.6,94,74,49,29.96,29.87,6,0,11,0.01
2013-7-10,92.8,82.4,72.0,78.7,74.1,69.9,99,77,49,29.91,29.69,8,1,18,0.00
2013-7-11,89.1,80.0,75.6,78.7,73.8,69.2,99,82,54,29.79,29.69,6,1,12,0.14
2013-7-12,77.5,73.0,69.3,72.6,68.8,63.7,99,87,70,29.96,29.78,8,1,20,0.27
2013-7-13,81.7,72.6,70.3,79.0,72.3,70.1,99,99,90,30.09,29.95,4,0,14,0.00
2013-7-14,91.8,82.4,73.8,78.7,75.4,72.5,99,81,55,30.22,30.13,4,1,8,0.00
2013-7-15,99.7,88.1,76.6,81.8,75.5,69.4,97,70,41,30.14,29.99,8,1,17,0.02
2013-7-16,98.8,86.7,76.1,76.9,69.2,59.9,92,61,29,30.08,30.00,4,0,11,0.01
2013-7-17,95.4,86.4,75.6,74.9,70.4,65.7,86,61,40,30.07,29.94,4,0,8,0.00
2013-7-18,99.5,88.5,78.3,79.2,74.4,69.7,80,64,39,29.96,29.83,5,1,10,0.00
2013-7-19,100.8,90.6,81.0,80.7,76.4,72.0,92,65,41,29.86,29.67,9,2,16,0.00
2013-7-20,97.2,87.0,79.9,76.6,72.7,68.5,79,64,41,29.71,29.60,11,3,17,0.00
2013-7-21,86.4,79.4,74.7,75.9,71.2,65.1,98,77,51,29.83,29.70,6,1,12,0.00
2013-7-22,87.1,78.4,75.0,78.5,76.6,74.8,99,94,74,29.83,29.66,4,0,8,0.22
2013-7-23,92.8,81.0,72.3,78.2,74.4,69.7,99,82,49,29.67,29.44,7,1,12,0.22
2013-7-24,88.9,79.8,72.9,74.4,66.9,57.4,93,66,47,29.78,29.49,7,1,11,0.00
2013-7-25,72.9,67.3,64.4,62.6,58.3,54.1,91,74,56,29.91,29.77,5,1,14,0.01
2013-7-26,86.0,73.6,65.1,69.2,63.5,56.9,92,72,40,29.93,29.85,5,1,9,0.00
2013-7-27,85.1,74.6,66.9,71.8,68.3,65.2,99,82,55,29.94,29.84,5,1,14,0.00
2013-7-28,80.8,73.5,66.4,76.8,71.3,66.1,99,93,78,29.87,29.80,5,1,13,0.12
2013-7-29,87.4,76.7,68.0,76.4,65.8,51.1,99,73,33,29.99,29.83,6,1,12,0.05
2013-7-30,87.4,74.8,62.6,62.6,56.8,52.0,81,56,33,30.05,29.97,7,1,13,0.00
2013-7-31,84.6,74.2,63.0,64.9,61.1,55.7,89,65,40,30.04,29.92,4,0,10,0.00
2013-8-1,76.6,71.4,68.9,72.5,67.7,62.5,99,88,73,29.92,29.71,6,0,14,0.66
2013-8-2,89.1,77.7,68.5,72.6,65.4,57.9,99,70,38,29.81,29.67,8,1,14,0.00
2013-8-3,80.8,73.3,69.4,69.8,67.0,64.1,93,81,63,29.82,29.73,7,1,14,0.06
2013-8-4,84.6,74.2,63.9,67.7,58.9,49.8,99,64,32,29.85,29.72,8,1,14,0.00
2013-8-5,84.2,71.4,60.1,60.7,50.7,38.4,75,52,20,29.94,29.84,7,1,11,0.00
2013-8-6,82.2,72.9,60.6,63.8,58.2,51.3,81,62,35,30.01,29.91,6,0,14,0.00
2013-8-7,81.9,74.3,69.3,71.0,67.2,63.5,95,79,62,30.02,29.95,6,1,14,0.00
2013-8-8,82.6,75.1,71.1,77.4,73.4,70.8,99,95,77,29.96,29.89,6,1,13,0.70
2013-8-9,88.9,79.1,73.0,78.0,75.4,72.8,99,89,67,29.91,29.69,7,1,16,0.00
2013-8-10,86.4,79.0,71.1,77.7,67.2,59.6,99,70,44,29.92,29.73,7,1,13,0.00
2013-8-11,80.8,73.3,63.5,70.7,61.9,55.4,97,70,45,30.01,29.91,4,0,11,0.00
2013-8-12,81.9,74.1,69.3,75.0,71.1,68.9,99,91,69,29.92,29.80,2,0,8,0.22
2013-8-13,81.3,72.6,68.9,74.4,71.0,68.0,99,95,69,29.81,29.59,4,0,11,1.69
2013-8-14,79.3,70.4,62.4,71.3,53.2,47.3,99,57,36,29.93,29.61,9,2,18,0.01
2013-8-15,78.6,68.3,55.9,56.0,52.8,45.6,87,60,35,30.03,29.93,4,0,11,0.00
2013-8-16,82.6,70.7,58.1,62.3,56.4,48.5,91,63,33,30.09,30.01,4,0,10,0.00
2013-8-17,81.1,68.7,59.0,62.8,59.0,52.8,96,74,38,30.16,30.09,3,0,7,0.00
2013-8-18,79.2,71.1,63.9,67.2,61.3,54.4,93,72,54,30.14,30.00,4,0,10,0.01
2013-8-19,81.5,71.4,61.9,66.0,60.6,54.6,89,71,43,30.03,29.92,6,1,11,0.00
2013-8-20,86.4,76.3,65.7,71.5,67.9,63.4,99,77,49,30.01,29.93,4,1,9,0.00
2013-8-21,74.5,72.9,71.1,70.7,69.2,67.5,90,88,86,30.01,30.01,4,1,7,0.00
2013-8-22,86.0,75.2,72.5,77.1,71.8,68.8,99,90,64,29.96,29.75,4,1,11,0.09
2013-8-23,87.8,75.9,68.4,71.7,62.5,46.7,99,68,26,29.96,29.75,4,0,10,0.00
2013-8-24,79.2,71.4,61.3,65.3,58.4,53.5,95,65,44,30.23,29.96,5,0,11,0.00
2013-8-25,85.5,71.2,58.5,63.1,55.6,44.3,99,63,28,30.29,30.14,5,1,12,0.00
2013-8-26,86.9,75.0,66.2,66.9,61.4,51.9,79,64,43,30.14,29.80,9,3,15,0.00
2013-8-27,92.8,79.5,70.7,71.3,68.3,63.6,99,71,40,29.81,29.71,7,1,14,0.07
2013-8-28,86.4,75.8,69.8,73.6,70.8,69.0,99,85,60,29.78,29.71,2,0,6,0.00
2013-8-29,82.4,73.8,69.6,72.1,69.4,66.4,99,87,61,29.92,29.74,5,1,13,0.00
2013-8-30,81.1,70.5,61.9,71.1,64.4,54.7,91,82,44,30.20,29.88,4,1,8,0.18
2013-8-31,89.8,78.5,70.9,75.2,72.5,70.0,99,83,59,29.94,29.83,8,1,14,0.00
2013-9-1,85.3,77.6,72.5,76.6,74.0,72.2,99,89,69,29.90,29.83,5,0,10,0.00
2013-9-2,85.1,75.6,71.4,79.5,74.5,71.0,99,97,75,29.85,29.76,3,0,8,0.08
2013-9-3,86.5,75.6,67.1,76.2,67.1,55.2,99,78,42,29.93,29.76,8,1,17,0.01
2013-9-4,85.5,73.0,62.1,61.1,56.8,48.1,91,60,31,30.05,29.93,8,1,14,0.00
2013-9-5,84.2,71.9,62.2,60.9,53.3,39.1,79,55,22,30.19,29.98,7,1,15,0.00
2013-9-6,74.5,65.1,55.4,48.6,45.6,40.1,75,51,33,30.30,30.18,5,0,11,0.00
2013-9-7,82.0,66.2,50.7,57.4,50.0,36.7,90,60,21,30.19,29.96,6,1,14,0.00
2013-9-8,88.0,73.8,64.9,64.8,57.6,44.1,91,60,33,30.12,29.85,7,2,16,0.00
2013-9-9,77.0,68.9,63.1,61.8,51.9,42.3,79,56,40,30.29,30.12,5,1,12,0.00
2013-9-10,87.4,77.3,69.1,73.9,68.9,61.6,89,76,59,30.23,30.10,8,1,13,0.00
2013-9-11,93.4,82.8,74.8,77.0,73.0,70.3,98,74,49,30.17,30.03,7,1,13,0.00
2013-9-12,78.4,76.5,74.7,71.5,70.6,68.8,87,82,76,30.05,30.00,2,0,8,0.00
2013-9-13,82.6,71.3,61.3,71.0,58.4,49.3,99,66,40,29.89,29.68,9,1,15,0.13
2013-9-14,70.9,60.8,52.3,50.4,47.3,44.2,85,63,39,30.18,29.89,8,1,14,0.00
2013-9-15,77.9,61.4,47.5,56.8,48.4,38.3,92,66,28,30.27,30.14,5,1,11,0.00
2013-9-16,76.1,64.2,59.2,63.8,57.0,50.5,96,79,51,30.26,30.08,5,0,10,0.06
2013-9-17,68.7,58.0,48.2,50.5,39.6,33.4,85,53,30,30.49,30.26,6,1,14,0.00
2013-9-18,71.2,58.7,45.9,50.8,46.6,42.6,91,67,38,30.41,30.25,4,0,12,0.00
2013-9-19,77.4,63.6,50.7,56.8,52.6,45.3,98,70,34,30.25,30.13,4,1,13,0.00
2013-9-20,77.0,66.5,55.4,61.8,58.4,54.1,99,77,46,30.15,30.05,5,1,14,0.00
2013-9-21,78.3,67.0,54.9,71.0,63.7,54.6,99,90,53,30.07,29.72,7,1,16,0.08
2013-9-22,75.0,66.2,56.5,69.7,52.8,41.3,99,67,32,29.95,29.69,9,1,21,0.33
2013-9-23,72.1,59.0,47.5,45.2,41.6,36.7,85,55,31,30.09,29.95,7,1,12,0.00
2013-9-24,76.5,59.5,45.9,50.0,44.9,40.9,95,62,30,30.10,29.92,8,1,13,0.00
2013-9-25,72.9,61.7,48.7,53.8,49.0,44.1,95,65,45,30.00,29.92,4,0,7,0.00
2013-9-26,73.8,62.0,51.4,63.5,56.3,51.2,99,83,59,30.14,29.98,4,0,11,0.00
2013-9-27,61.9,57.3,52.9,58.1,54.6,52.6,99,91,77,30.22,30.14,0,0,2,0.00
2013-10-10,64.9,60.7,56.5,61.0,57.1,51.6,99,88,74,30.31,30.08,4,2,12,0.17
2013-10-11,66.2,63.5,61.9,64.0,61.6,59.0,99,94,86,30.11,30.03,6,2,12,0.33
2013-10-12,70.5,64.3,61.7,60.1,54.1,45.5,86,70,50,30.30,30.08,11,3,25,0.01
2013-10-13,66.9,61.2,58.5,56.1,52.4,48.3,85,73,55,30.42,30.30,6,2,15,0.00
2013-10-14,66.6,58.8,50.0,52.6,50.2,48.5,99,74,56,30.41,30.31,3,0,7,0.00
2013-10-15,70.7,59.5,48.2,59.6,53.1,47.9,99,82,52,30.31,30.14,4,0,8,0.00
2013-10-16,67.8,62.5,59.9,61.8,60.1,57.5,99,92,71,30.15,29.97,2,0,4,0.00
2013-10-17,74.3,64.8,60.3,65.5,62.8,60.0,99,93,65,29.97,29.73,4,0,10,0.00
2013-10-18,71.1,63.1,53.6,65.8,50.3,39.7,99,66,32,30.04,29.73,10,3,14,0.00
2013-10-19,67.8,58.5,46.2,58.9,48.4,40.5,98,70,46,30.04,29.80,4,0,10,0.00
2013-10-20,67.6,56.2,48.2,58.8,39.1,25.8,99,56,23,30.12,29.79,8,2,19,0.00
2013-10-21,71.1,56.6,44.4,47.5,38.7,27.6,82,55,20,30.21,30.04,6,1,14,0.00
2013-10-22,72.7,57.9,48.2,53.1,45.8,38.0,99,67,35,30.04,29.80,9,1,15,0.00
2013-10-23,57.2,50.2,42.8,43.0,38.7,33.0,86,66,42,29.85,29.63,6,0,12,0.00
2013-10-24,56.1,45.9,38.5,37.3,30.2,19.4,87,58,26,30.07,29.80,9,2,19,0.00
2013-10-25,58.1,46.0,37.6,32.9,28.0,21.9,71,51,26,30.30,30.07,8,2,15,0.00
2013-10-26,60.4,47.9,36.1,32.3,28.7,19.9,78,51,21,30.29,29.96,9,1,17,0.00
2013-10-27,62.8,51.8,43.9,32.1,29.2,24.6,60,43,25,30.18,29.91,8,2,16,0.00
2013-10-28,65.3,49.9,36.9,38.5,31.1,26.3,77,52,25,30.35,30.17,8,1,14,0.00
2013-10-29,59.9,51.8,43.5,42.4,38.0,34.4,82,60,41,30.46,30.35,4,0,11,0.00
2013-10-30,62.4,48.9,42.4,53.7,45.2,38.6,97,87,68,30.40,30.24,2,0,5,0.00
2013-10-31,70.7,61.3,52.2,64.1,58.1,51.1,99,89,74,30.28,29.87,6,1,14,0.00
2013-11-1,71.8,65.6,60.1,65.1,60.4,52.2,99,84,56,29.87,29.60,20,2,36,0.00
2013-11-2,68.7,59.2,52.0,64.0,53.2,39.2,99,82,54,29.83,29.66,3,0,7,0.00
2013-11-3,54.5,47.2,36.7,44.9,33.2,20.3,91,60,36,30.49,29.82,8,1,14,0.00
2013-11-4,51.4,42.9,35.8,34.1,22.5,14.3,60,45,28,30.70,30.49,5,1,13,0.00
2013-11-5,59.5,52.1,46.9,44.3,38.8,32.8,79,61,46,30.70,30.53,5,0,10,0.00
2013-11-6,64.8,54.4,41.0,58.7,48.1,40.2,99,82,51,30.55,30.12,5,1,11,0.00
2013-11-7,66.0,56.9,39.6,62.9,52.4,30.8,99,86,56,30.11,29.80,11,2,24,0.07
2013-11-8,51.4,43.9,37.8,33.8,27.2,21.1,75,53,33,30.29,29.99,11,3,19,0.00
2013-11-9,55.0,44.2,34.2,33.3,25.0,16.8,71,49,25,30.36,30.05,8,1,11,0.00
2013-11-10,64.2,51.5,44.1,33.9,28.7,20.6,64,43,25,30.12,29.87,15,4,26,0.00
2013-11-11,58.8,49.4,39.9,31.9,24.3,18.7,50,38,22,30.27,30.02,8,2,16,0.00
2013-11-12,51.3,39.5,30.4,33.9,23.8,12.2,97,55,38,30.35,29.98,10,3,21,0.06
2013-11-13,43.7,33.2,26.8,16.3,10.6,-2.5,59,41,15,30.42,30.33,11,2,17,0.00
2013-11-14,56.7,43.5,32.2,18.1,7.4,-6.1,55,28,10,30.35,30.22,11,3,20,0.00
2013-11-15,62.8,46.8,38.5,37.8,28.6,16.3,66,50,21,30.32,30.22,4,0,8,0.00
2013-11-16,55.9,47.7,42.4,49.7,42.0,30.5,99,82,53,30.40,30.28,4,0,8,0.04
2013-11-17,63.3,56.3,46.6,63.1,56.0,46.3,99,99,92,30.32,29.84,5,0,11,0.00
2013-11-18,70.5,61.2,52.0,63.1,36.8,16.0,99,49,16,29.85,29.66,11,3,23,0.17
2013-11-19,52.0,45.2,36.5,24.3,20.1,17.7,51,37,28,30.40,29.83,14,4,26,0.01
2013-11-20,49.5,39.8,33.1,22.3,15.3,4.1,59,39,17,30.66,30.40,8,1,14,0.00
2013-11-21,57.4,48.5,40.6,43.1,35.3,22.3,75,61,46,30.66,30.45,5,1,13,0.00
2013-11-22,60.8,53.6,48.6,53.4,48.2,40.3,95,82,68,30.45,29.95,8,1,15,0.01
2013-11-23,54.0,43.8,32.0,51.4,23.0,4.2,92,46,24,30.08,29.95,14,4,27,0.01
2013-11-24,32.0,26.4,23.0,6.9,-5.8,-12.8,34,24,16,30.45,30.05,17,7,29,0.34
2013-11-25,39.4,28.9,20.1,12.9,5.5,-2.2,55,37,22,30.57,30.41,8,2,13,0.00
2013-11-26,54.5,40.7,32.5,54.2,28.7,12.2,99,65,33,30.41,29.77,9,1,21,0.40
2013-11-27,62.2,47.9,34.7,61.8,45.8,17.0,99,93,48,29.80,29.35,17,5,28,1.52
2013-11-28,39.4,32.5,27.7,19.9,10.2,0.9,60,41,21,30.54,29.81,14,4,24,0.05
2013-11-29,44.4,33.6,26.6,20.2,15.7,11.2,68,49,29,30.79,30.53,7,0,11,0.00
2013-11-30,45.0,36.3,25.5,39.3,24.2,14.4,82,61,47,30.80,30.40,6,0,11,0.00
2013-12-1,54.0,42.7,34.0,38.4,33.4,28.0,86,70,37,30.40,30.06,4,0,8,0.00
2013-12-2,54.3,42.6,35.8,41.9,33.2,27.0,99,71,35,30.07,29.92,4,0,7,0.00
2013-12-3,56.5,43.8,37.2,44.4,38.9,32.5,99,84,48,30.05,29.91,3,0,6,0.00
2013-12-4,52.9,44.9,36.3,48.5,41.8,32.6,99,89,73,30.17,30.04,3,0,5,0.00
2013-12-5,60.6,53.8,48.7,58.4,53.2,48.5,99,98,86,30.17,29.98,4,0,9,0.01
2013-12-6,62.2,49.5,37.2,61.8,49.2,36.8,99,99,91,30.18,29.91,8,1,15,0.40
2013-12-7,44.1,37.0,30.9,37.1,29.0,15.7,99,75,47,30.57,30.12,10,2,16,0.15
2013-12-8,39.0,31.7,27.9,38.8,23.6,14.2,99,74,48,30.65,30.38,9,1,16,0.08
2013-12-9,43.5,38.9,34.0,43.3,38.6,33.6,99,99,99,30.39,30.00,11,3,20,0.56
2013-12-10,35.4,32.6,27.3,34.5,30.6,18.7,99,93,66,30.20,29.89,8,1,13,0.04
2013-12-11,36.0,29.5,24.6,20.2,13.4,7.3,74,51,33,30.41,30.20,9,2,20,0.01
2013-12-12,31.5,25.4,20.8,14.0,5.8,-6.1,60,44,20,30.42,30.24,6,2,15,0.00
2013-12-13,38.7,29.9,19.6,13.8,8.4,3.0,55,41,27,30.38,30.19,11,2,18,0.00
2013-12-14,49.5,34.4,29.1,49.2,29.4,13.5,99,83,50,30.52,29.73,11,3,21,0.58
2013-12-15,53.6,38.7,31.6,53.3,31.9,15.2,99,79,44,29.91,29.49,14,4,22,0.45
2013-12-16,32.9,27.8,20.7,19.6,5.5,-2.2,62,39,24,30.29,29.89,11,3,21,0.00
2013-12-17,42.8,31.6,24.1,42.3,26.1,5.9,99,82,45,30.28,29.94,4,0,11,0.18
2013-12-18,40.1,30.2,23.5,24.4,18.4,13.3,92,63,37,30.24,29.94,11,1,18,0.00
2013-12-19,52.9,37.7,25.7,25.8,20.2,15.5,71,51,24,30.26,30.08,7,1,12,0.00
2013-12-20,58.3,42.5,34.0,32.2,26.8,22.3,78,57,26,30.16,30.03,5,0,13,0.00
2013-12-21,68.2,58.5,52.3,57.0,48.2,44.9,95,70,46,30.06,29.94,6,1,13,0.00
2013-12-22,73.0,63.3,54.7,65.7,58.8,53.4,99,86,73,30.01,29.85,10,2,19,0.01
2013-12-23,60.4,53.5,42.4,59.8,52.5,32.8,99,96,68,30.19,29.92,11,1,19,0.45
2013-12-24,44.1,36.9,27.9,33.4,20.4,8.3,70,51,33,30.40,30.13,9,1,16,0.00
2013-12-25,33.4,26.3,19.6,19.0,6.4,0.0,62,43,26,30.58,30.40,8,0,16,0.00
2013-12-26,41.7,31.3,23.9,23.2,20.0,14.5,78,63,46,30.48,30.21,9,0,14,0.00
2013-12-27,45.7,34.0,26.8,20.9,15.6,5.2,69,50,20,30.44,30.32,9,0,16,0.00
2013-12-28,60.3,44.2,28.4,23.3,19.9,15.0,64,41,18,30.36,30.13,10,0,19,0.00
2013-12-29,54.0,44.8,41.7,53.7,36.5,21.8,99,76,38,30.13,29.41,11,1,17,1.19
2013-12-30,48.4,38.0,24.8,40.6,28.0,6.8,99,70,45,30.24,29.73,8,0,17,0.00
2013-12-31,38.3,28.5,22.3,19.9,9.7,6.0,53,45,36,30.23,30.11,11,0,17,0.00
2014-1-1,37.6,33.1,23.2,28.3,15.6,3.6,72,49,33,30.47,30.28,3,0,13,0.00
2014-1-2,38.1,31.5,23.4,33.2,29.2,23.0,99,91,72,30.28,29.65,10,2,23,0.01